Terminal Aerodrome Forecast
Issued by NWS Portland, OR

Home | Current Version | Previous Version | Text Only | Print | Product List | Glossary On
Versions: 1 2 3 4 5 6 7 8 9 10 11 12 13 14 15 16 17 18 19 20 21 22 23 24 25 26 27 28 29 30 31 32 33 34 35 36 37 38 39 40 41 42
000
FTUS46 KPQR 252326
TAFHIO
TAF
KHIO 252326Z 2600/2624 20006KT P6SM SCT020 OVC040
      TEMPO 2600/2604 SCT015 BKN022
     FM260500 19004KT P6SM OVC012
     FM261500 18003KT 1SM BR OVC003
     FM262100 18006KT 4SM BR OVC007=

USA.gov is the U.S. government's official web portal to all federal, state and local government web resources and services.